When you browse on this site, cookies collect data to enhance your experience and personalize the content and advertising you see.
Visit our Privacy Policy to learn more. By continuing to use the site, you agree to this use of cookies and data.
  • In Belgium
  • List of Countries
  • For 7 days
  • Water Temperature
  • Weather Map
  • Weather Widgets
  • user-avatar
    Login

    Hourly Weather Kostygovo

    Today, 3 June, Wednesday

    Time Temperature Precipitation Wind Pressure Humidity
    00:00 +8°C° 0 mm 2 mps 748 mmHg 84%
    01:00 +8°C° 0 mm 3 mps 748 mmHg 84%
    02:00 +8°C° 0 mm 3 mps 747 mmHg 83%
    03:00 +9°C° 0 mm 3 mps 747 mmHg 82%
    04:00 +9°C° 0 mm 3 mps 747 mmHg 82%
    05:00 +10°C° 0 mm 3 mps 746 mmHg 82%
    06:00 +10°C° 0 mm 3 mps 746 mmHg 82%
    07:00 +11°C° 0 mm 3 mps 746 mmHg 82%
    08:00 +12°C° 0 mm 3 mps 746 mmHg 82%
    09:00 +12°C° 0.2 mm 3 mps 746 mmHg 84%
    10:00 +12°C° 0.2 mm 3 mps 746 mmHg 86%
    11:00 +12°C° 0.2 mm 3 mps 746 mmHg 88%
    12:00 +12°C° 0.3 mm 3 mps 746 mmHg 89%
    13:00 +12°C° 0.3 mm 3 mps 746 mmHg 90%
    14:00 +13°C° 0.3 mm 3 mps 746 mmHg 91%
    15:00 +13°C° 0.2 mm 3 mps 745 mmHg 92%
    16:00 +13°C° 0.2 mm 3 mps 745 mmHg 94%
    17:00 +12°C° 0.2 mm 3 mps 744 mmHg 95%
    18:00 +12°C° 0.6 mm 3 mps 744 mmHg 96%
    19:00 +13°C° 0.6 mm 3 mps 744 mmHg 96%
    20:00 +13°C° 0.6 mm 3 mps 744 mmHg 96%
    21:00 +12°C° 0 mm 3 mps 743 mmHg 96%
    22:00 +12°C° 0 mm 3 mps 743 mmHg 95%
    23:00 +12°C° 0 mm 3 mps 742 mmHg 95%

    Tomorrow, 4 June, Thursday

    Time Temperature Precipitation Wind Pressure Humidity
    00:00 +12°C° 0.6 mm 4 mps 741 mmHg 96%
    01:00 +12°C° 0.6 mm 4 mps 741 mmHg 96%
    02:00 +11°C° 0.6 mm 4 mps 740 mmHg 97%
    03:00 +11°C° 3.2 mm 4 mps 739 mmHg 97%
    04:00 +11°C° 3.2 mm 4 mps 738 mmHg 97%
    05:00 +11°C° 3.2 mm 4 mps 737 mmHg 98%
    06:00 +11°C° 3.4 mm 3 mps 736 mmHg 98%
    07:00 +12°C° 3.4 mm 3 mps 736 mmHg 98%
    08:00 +13°C° 3.4 mm 2 mps 736 mmHg 98%
    09:00 +13°C° 1.4 mm 2 mps 736 mmHg 98%
    10:00 +13°C° 1.4 mm 3 mps 736 mmHg 98%
    11:00 +13°C° 1.4 mm 3 mps 735 mmHg 97%
    12:00 +14°C° 0.1 mm 3 mps 736 mmHg 90%
    13:00 +17°C° 0.1 mm 3 mps 736 mmHg 82%
    14:00 +18°C° 0.1 mm 3 mps 737 mmHg 75%
    15:00 +18°C° 0.4 mm 3 mps 737 mmHg 78%
    16:00 +18°C° 0.4 mm 3 mps 737 mmHg 82%
    17:00 +18°C° 0.4 mm 3 mps 737 mmHg 85%
    18:00 +17°C° 0.7 mm 3 mps 737 mmHg 88%
    19:00 +16°C° 0.7 mm 2 mps 738 mmHg 91%
    20:00 +15°C° 0.7 mm 2 mps 738 mmHg 94%
    21:00 +14°C° 0.1 mm 2 mps 738 mmHg 95%
    22:00 +13°C° 0.1 mm 2 mps 738 mmHg 95%
    23:00 +13°C° 0.1 mm 2 mps 738 mmHg 96%

    Day after tomorrow, 5 June, Friday

    Time Temperature Precipitation Wind Pressure Humidity
    00:00 +12°C° 0 mm 2 mps 739 mmHg 96%
    01:00 +12°C° 0 mm 2 mps 739 mmHg 96%
    02:00 +10°C° 0 mm 2 mps 739 mmHg 97%
    03:00 +10°C° 0 mm 2 mps 740 mmHg 96%
    04:00 +12°C° 0 mm 2 mps 740 mmHg 96%
    05:00 +12°C° 0 mm 2 mps 740 mmHg 96%
    06:00 +13°C° 0 mm 2 mps 740 mmHg 89%
    07:00 +14°C° 0 mm 3 mps 741 mmHg 83%
    08:00 +16°C° 0 mm 3 mps 741 mmHg 77%
    09:00 +17°C° 0.2 mm 3 mps 741 mmHg 74%
    10:00 +18°C° 0.2 mm 4 mps 741 mmHg 72%
    11:00 +19°C° 0.2 mm 4 mps 741 mmHg 70%
    12:00 +19°C° 1 mm 4 mps 741 mmHg 75%
    13:00 +18°C° 1 mm 4 mps 741 mmHg 80%
    14:00 +18°C° 1 mm 4 mps 741 mmHg 84%
    15:00 +18°C° 0.4 mm 4 mps 741 mmHg 84%
    16:00 +18°C° 0.4 mm 4 mps 741 mmHg 84%
    17:00 +18°C° 0.4 mm 3 mps 741 mmHg 84%
    18:00 +16°C° 0.3 mm 3 mps 741 mmHg 87%
    19:00 +15°C° 0.3 mm 2 mps 741 mmHg 91%
    20:00 +14°C° 0.3 mm 2 mps 741 mmHg 94%
    21:00 +13°C° 0 mm 2 mps 742 mmHg 95%
    22:00 +12°C° 0 mm 2 mps 742 mmHg 96%
    23:00 +10°C° 0 mm 2 mps 742 mmHg 97%

    6 June, Saturday

    Time Temperature Precipitation Wind Pressure Humidity
    00:00 +10°C° 0 mm 2 mps 742 mmHg 97%
    01:00 +9°C° 0 mm 2 mps 742 mmHg 98%
    02:00 +9°C° 0 mm 2 mps 742 mmHg 98%
    03:00 +10°C° 0 mm 2 mps 742 mmHg 98%
    04:00 +10°C° 0 mm 2 mps 742 mmHg 98%
    05:00 +12°C° 0 mm 2 mps 742 mmHg 97%
    06:00 +13°C° 0 mm 2 mps 742 mmHg 93%
    07:00 +15°C° 0 mm 2 mps 742 mmHg 88%
    08:00 +16°C° 0 mm 2 mps 743 mmHg 83%
    09:00 +18°C° 0 mm 3 mps 743 mmHg 74%
    10:00 +20°C° 0 mm 3 mps 743 mmHg 64%
    11:00 +22°C° 0 mm 4 mps 743 mmHg 55%
    12:00 +22°C° 0 mm 4 mps 743 mmHg 58%
    13:00 +22°C° 0 mm 4 mps 742 mmHg 61%
    14:00 +22°C° 0 mm 4 mps 742 mmHg 65%
    15:00 +21°C° 0.5 mm 4 mps 742 mmHg 73%
    16:00 +20°C° 0.5 mm 4 mps 742 mmHg 81%
    17:00 +19°C° 0.5 mm 3 mps 742 mmHg 89%
    18:00 +19°C° 0.4 mm 3 mps 742 mmHg 91%
    19:00 +18°C° 0.4 mm 3 mps 743 mmHg 94%
    20:00 +17°C° 0.4 mm 2 mps 743 mmHg 97%
    21:00 +17°C° 0 mm 2 mps 743 mmHg 97%
    22:00 +16°C° 0 mm 2 mps 744 mmHg 98%
    23:00 +15°C° 0 mm 2 mps 744 mmHg 98%

    7 June, Sunday

    Time Temperature Precipitation Wind Pressure Humidity
    00:00 +15°C° 0 mm 2 mps 744 mmHg 98%
    01:00 +14°C° 0 mm 2 mps 745 mmHg 98%
    02:00 +14°C° 0 mm 1 mps 745 mmHg 98%
    03:00 +14°C° 0 mm 1 mps 746 mmHg 98%
    04:00 +14°C° 0 mm 1 mps 746 mmHg 97%
    05:00 +14°C° 0 mm 1 mps 747 mmHg 96%
    06:00 +16°C° 0 mm 1 mps 747 mmHg 88%
    07:00 +19°C° 0 mm 1 mps 748 mmHg 79%
    08:00 +21°C° 0 mm 1 mps 748 mmHg 71%
    09:00 +22°C° 0 mm 1 mps 749 mmHg 63%
    10:00 +23°C° 0 mm 2 mps 749 mmHg 55%
    11:00 +25°C° 0 mm 2 mps 749 mmHg 48%
    12:00 +25°C° 0 mm 2 mps 749 mmHg 47%
    13:00 +26°C° 0 mm 2 mps 749 mmHg 47%
    14:00 +26°C° 0 mm 2 mps 749 mmHg 47%
    15:00 +26°C° 0 mm 2 mps 749 mmHg 50%
    16:00 +26°C° 0 mm 1 mps 749 mmHg 54%
    17:00 +26°C° 0 mm 1 mps 749 mmHg 57%
    18:00 +24°C° 0 mm 1 mps 749 mmHg 65%
    19:00 +22°C° 0 mm 1 mps 749 mmHg 72%
    20:00 +20°C° 0 mm 1 mps 750 mmHg 80%
    21:00 +19°C° 0 mm 1 mps 750 mmHg 83%
    22:00 +18°C° 0 mm 1 mps 750 mmHg 85%
    23:00 +16°C° 0 mm 1 mps 750 mmHg 88%

    8 June, Monday

    Time Temperature Precipitation Wind Pressure Humidity
    00:00 +16°C° 0 mm 1 mps 750 mmHg 89%
    01:00 +16°C° 0 mm 1 mps 750 mmHg 89%
    02:00 +16°C° 0 mm 1 mps 750 mmHg 90%
    03:00 +16°C° 0 mm 1 mps 750 mmHg 87%
    04:00 +18°C° 0 mm 1 mps 750 mmHg 84%
    05:00 +17°C° 0 mm 2 mps 750 mmHg 82%
    06:00 +19°C° 0 mm 2 mps 750 mmHg 77%
    07:00 +20°C° 0 mm 2 mps 750 mmHg 72%
    08:00 +22°C° 0 mm 3 mps 750 mmHg 68%
    09:00 +24°C° 0 mm 3 mps 750 mmHg 64%
    10:00 +26°C° 0 mm 3 mps 750 mmHg 61%
    11:00 +27°C° 0 mm 4 mps 750 mmHg 58%
    12:00 +27°C° 0.8 mm 3 mps 750 mmHg 65%
    13:00 +26°C° 0.8 mm 3 mps 750 mmHg 72%
    14:00 +26°C° 0.8 mm 3 mps 749 mmHg 79%
    15:00 +26°C° 0.6 mm 2 mps 749 mmHg 79%
    16:00 +26°C° 0.6 mm 2 mps 749 mmHg 78%
    17:00 +26°C° 0.6 mm 2 mps 749 mmHg 77%
    18:00 +25°C° 0.1 mm 2 mps 749 mmHg 81%
    19:00 +23°C° 0.1 mm 2 mps 749 mmHg 85%
    20:00 +21°C° 0.1 mm 2 mps 749 mmHg 89%
    21:00 +20°C° 0 mm 2 mps 749 mmHg 91%
    22:00 +19°C° 0 mm 2 mps 749 mmHg 93%
    23:00 +18°C° 0 mm 2 mps 749 mmHg 94%
    Show more